Year,Month,Day,Hour,Minute,Value (Times are PST for temperature in C)
2013,07,26,00,00,13.50
2013,07,26,00,01,13.50
2013,07,26,00,02,13.50
2013,07,26,00,03,13.50
2013,07,26,00,04,13.50
2013,07,26,00,05,13.50
2013,07,26,00,06,13.50
2013,07,26,00,07,13.50
2013,07,26,00,08,13.50
2013,07,26,00,09,13.50
2013,07,26,00,10,13.40
2013,07,26,00,11,13.40
2013,07,26,00,12,13.40
2013,07,26,00,13,13.40
2013,07,26,00,14,13.40
2013,07,26,00,15,13.40
2013,07,26,00,16,13.40
2013,07,26,00,17,13.40
2013,07,26,00,18,13.40
2013,07,26,00,19,13.30
2013,07,26,00,20,13.30
2013,07,26,00,21,13.30
2013,07,26,00,22,13.30
2013,07,26,00,23,13.20
2013,07,26,00,24,13.10
2013,07,26,00,25,13.10
2013,07,26,00,26,13.00
2013,07,26,00,27,13.00
2013,07,26,00,28,12.90
2013,07,26,00,29,12.80
2013,07,26,00,30,12.80
2013,07,26,00,31,12.80
2013,07,26,00,32,12.80
2013,07,26,00,33,12.80
2013,07,26,00,34,12.70
2013,07,26,00,35,12.70
2013,07,26,00,36,12.70
2013,07,26,00,37,12.70
2013,07,26,00,38,12.70
2013,07,26,00,39,12.70
2013,07,26,00,40,12.70
2013,07,26,00,41,12.70
2013,07,26,00,42,12.60
2013,07,26,00,43,12.60
2013,07,26,00,44,12.60
2013,07,26,00,45,12.60
2013,07,26,00,46,12.60
2013,07,26,00,47,12.60
2013,07,26,00,48,12.60
2013,07,26,00,49,12.60
2013,07,26,00,50,12.60
2013,07,26,00,51,12.60
2013,07,26,00,52,12.60
2013,07,26,00,53,12.60
2013,07,26,00,54,12.60
2013,07,26,00,55,12.60
2013,07,26,00,56,12.60
2013,07,26,00,57,12.60
2013,07,26,00,58,12.60
2013,07,26,00,59,12.70
2013,07,26,01,00,12.70
2013,07,26,01,01,12.70
2013,07,26,01,02,12.70
2013,07,26,01,03,12.70
2013,07,26,01,04,12.70
2013,07,26,01,05,12.80
2013,07,26,01,06,12.80
2013,07,26,01,07,12.80
2013,07,26,01,08,12.80
2013,07,26,01,09,12.80
2013,07,26,01,10,12.80
2013,07,26,01,11,12.80
2013,07,26,01,12,12.80
2013,07,26,01,13,12.80
2013,07,26,01,14,12.80
2013,07,26,01,15,12.80
2013,07,26,01,16,12.80
2013,07,26,01,17,12.80
2013,07,26,01,18,12.80
2013,07,26,01,19,12.80
2013,07,26,01,20,12.80
2013,07,26,01,21,12.80
2013,07,26,01,22,12.80
2013,07,26,01,23,12.80
2013,07,26,01,24,12.80
2013,07,26,01,25,12.80
2013,07,26,01,26,12.80
2013,07,26,01,27,12.80
2013,07,26,01,28,12.80
2013,07,26,01,29,12.80
2013,07,26,01,30,12.80
2013,07,26,01,31,12.80
2013,07,26,01,32,12.80
2013,07,26,01,33,12.80
2013,07,26,01,34,12.80
2013,07,26,01,35,12.90
2013,07,26,01,36,12.90
2013,07,26,01,37,12.90
2013,07,26,01,38,12.90
2013,07,26,01,39,12.90
2013,07,26,01,40,12.90
2013,07,26,01,41,12.90
2013,07,26,01,42,12.90
2013,07,26,01,43,12.90
2013,07,26,01,44,13.00
2013,07,26,01,45,13.00
2013,07,26,01,46,13.00
2013,07,26,01,47,13.00
2013,07,26,01,48,13.00
2013,07,26,01,49,13.00
2013,07,26,01,50,13.00
2013,07,26,01,51,13.00
2013,07,26,01,52,13.00
2013,07,26,01,53,13.00
2013,07,26,01,54,13.00
2013,07,26,01,55,13.00
2013,07,26,01,56,13.00
2013,07,26,01,57,12.90
2013,07,26,01,58,12.90
2013,07,26,01,59,12.90
2013,07,26,02,00,12.90
2013,07,26,02,01,12.90
2013,07,26,02,02,12.90
2013,07,26,02,03,12.90
2013,07,26,02,04,12.90
2013,07,26,02,05,12.90
2013,07,26,02,06,12.90
2013,07,26,02,07,12.90
2013,07,26,02,08,12.90
2013,07,26,02,09,12.90
2013,07,26,02,10,12.90
2013,07,26,02,11,12.90
2013,07,26,02,12,12.90
2013,07,26,02,13,12.90
2013,07,26,02,14,12.90
2013,07,26,02,15,12.90
2013,07,26,02,16,12.90
2013,07,26,02,17,12.90
2013,07,26,02,18,12.90
2013,07,26,02,19,13.00
2013,07,26,02,20,13.00
2013,07,26,02,21,13.10
2013,07,26,02,22,13.10
2013,07,26,02,23,13.10
2013,07,26,02,24,13.10
2013,07,26,02,25,13.10
2013,07,26,02,26,13.10
2013,07,26,02,27,13.10
2013,07,26,02,28,13.20
2013,07,26,02,29,13.20
2013,07,26,02,30,13.20
2013,07,26,02,31,13.20
2013,07,26,02,32,13.20
2013,07,26,02,33,13.30
2013,07,26,02,34,13.30
2013,07,26,02,35,13.30
2013,07,26,02,36,13.30
2013,07,26,02,37,13.30
2013,07,26,02,38,13.40
2013,07,26,02,39,13.40
2013,07,26,02,40,13.40
2013,07,26,02,41,13.40
2013,07,26,02,42,13.40
2013,07,26,02,43,13.30
2013,07,26,02,44,13.30
2013,07,26,02,45,13.30
2013,07,26,02,46,13.30
2013,07,26,02,47,13.20
2013,07,26,02,48,13.20
2013,07,26,02,49,13.20
2013,07,26,02,50,13.20
2013,07,26,02,51,13.20
2013,07,26,02,52,13.20
2013,07,26,02,53,13.20
2013,07,26,02,54,13.20
2013,07,26,02,55,13.20
2013,07,26,02,56,13.20
2013,07,26,02,57,13.20
2013,07,26,02,58,13.20
2013,07,26,02,59,13.10
2013,07,26,03,00,13.10
2013,07,26,03,01,13.10
2013,07,26,03,02,13.10
2013,07,26,03,03,13.00
2013,07,26,03,04,13.00
2013,07,26,03,05,13.00
2013,07,26,03,06,13.00
2013,07,26,03,07,13.00
2013,07,26,03,08,12.90
2013,07,26,03,09,12.90
2013,07,26,03,10,12.90
2013,07,26,03,11,12.90
2013,07,26,03,12,12.90
2013,07,26,03,13,12.90
2013,07,26,03,14,12.90
2013,07,26,03,15,12.80
2013,07,26,03,16,12.80
2013,07,26,03,17,12.80
2013,07,26,03,18,12.80
2013,07,26,03,19,12.80
2013,07,26,03,20,12.80
2013,07,26,03,21,12.80
2013,07,26,03,22,12.80
2013,07,26,03,23,12.70
2013,07,26,03,24,12.70
2013,07,26,03,25,12.70
2013,07,26,03,26,12.60
2013,07,26,03,27,12.60
2013,07,26,03,28,12.60
2013,07,26,03,29,12.50
2013,07,26,03,30,12.50
2013,07,26,03,31,12.50
2013,07,26,03,32,12.40
2013,07,26,03,33,12.40
2013,07,26,03,34,12.40
2013,07,26,03,35,12.30
2013,07,26,03,36,12.30
2013,07,26,03,37,12.30
2013,07,26,03,38,12.30
2013,07,26,03,39,12.30
2013,07,26,03,40,12.20
2013,07,26,03,41,12.20
2013,07,26,03,42,12.20
2013,07,26,03,43,12.20
2013,07,26,03,44,12.10
2013,07,26,03,45,12.10
2013,07,26,03,46,12.00
2013,07,26,03,47,12.00
2013,07,26,03,48,12.00
2013,07,26,03,49,12.00
2013,07,26,03,50,11.90
2013,07,26,03,51,11.90
2013,07,26,03,52,11.90
2013,07,26,03,53,11.90
2013,07,26,03,54,11.90
2013,07,26,03,55,11.80
2013,07,26,03,56,11.80
2013,07,26,03,57,11.80
2013,07,26,03,58,11.80
2013,07,26,03,59,11.80
2013,07,26,04,00,11.80
2013,07,26,04,01,11.80
2013,07,26,04,02,11.80
2013,07,26,04,03,11.80
2013,07,26,04,04,11.80
2013,07,26,04,05,11.80
2013,07,26,04,06,11.80
2013,07,26,04,07,11.80
2013,07,26,04,08,11.80
2013,07,26,04,09,11.80
2013,07,26,04,10,11.80
2013,07,26,04,11,11.70
2013,07,26,04,12,11.70
2013,07,26,04,13,11.70
2013,07,26,04,14,11.70
2013,07,26,04,15,11.70
2013,07,26,04,16,11.70
2013,07,26,04,17,11.70
2013,07,26,04,18,11.70
2013,07,26,04,19,11.60
2013,07,26,04,20,11.60
2013,07,26,04,21,11.60
2013,07,26,04,22,11.60
2013,07,26,04,23,11.60
2013,07,26,04,24,11.60
2013,07,26,04,25,11.60
2013,07,26,04,26,11.60
2013,07,26,04,27,11.60
2013,07,26,04,28,11.60
2013,07,26,04,29,11.60
2013,07,26,04,30,11.60
2013,07,26,04,31,11.60
2013,07,26,04,32,11.60
2013,07,26,04,33,11.60
2013,07,26,04,34,11.60
2013,07,26,04,35,11.60
2013,07,26,04,36,11.60
2013,07,26,04,37,11.60
2013,07,26,04,38,11.60
2013,07,26,04,39,11.60
2013,07,26,04,40,11.60
2013,07,26,04,41,11.60
2013,07,26,04,42,11.50
2013,07,26,04,43,11.40
2013,07,26,04,44,11.40
2013,07,26,04,45,11.40
2013,07,26,04,46,11.40
2013,07,26,04,47,11.40
2013,07,26,04,48,11.40
2013,07,26,04,49,11.50
2013,07,26,04,50,11.60
2013,07,26,04,51,11.60
2013,07,26,04,52,11.60
2013,07,26,04,53,11.60
2013,07,26,04,54,11.60
2013,07,26,04,55,11.60
2013,07,26,04,56,11.60
2013,07,26,04,57,11.60
2013,07,26,04,58,11.60
2013,07,26,04,59,11.60
2013,07,26,05,00,11.60
2013,07,26,05,01,11.60
2013,07,26,05,02,11.60
2013,07,26,05,03,11.60
2013,07,26,05,04,11.60
2013,07,26,05,05,11.60
2013,07,26,05,06,11.60
2013,07,26,05,07,11.60
2013,07,26,05,08,11.60
2013,07,26,05,09,11.60
2013,07,26,05,10,11.50
2013,07,26,05,11,11.40
2013,07,26,05,12,11.40
2013,07,26,05,13,11.40
2013,07,26,05,14,11.40
2013,07,26,05,15,11.40
2013,07,26,05,16,11.40
2013,07,26,05,17,11.40
2013,07,26,05,18,11.40
2013,07,26,05,19,11.40
2013,07,26,05,20,11.40
2013,07,26,05,21,11.40
2013,07,26,05,22,11.40
2013,07,26,05,23,11.40
2013,07,26,05,24,11.40
2013,07,26,05,25,11.40
2013,07,26,05,26,11.40
2013,07,26,05,27,11.30
2013,07,26,05,28,11.30
2013,07,26,05,29,11.30
2013,07,26,05,30,11.30
2013,07,26,05,31,11.30
2013,07,26,05,32,11.30
2013,07,26,05,33,11.30
2013,07,26,05,34,11.30
2013,07,26,05,35,11.20
2013,07,26,05,36,11.20
2013,07,26,05,37,11.20
2013,07,26,05,38,11.10
2013,07,26,05,39,11.10
2013,07,26,05,40,11.10
2013,07,26,05,41,11.10
2013,07,26,05,42,11.10
2013,07,26,05,43,11.10
2013,07,26,05,44,11.10
2013,07,26,05,45,11.10
2013,07,26,05,46,11.10
2013,07,26,05,47,10.90
2013,07,26,05,48,10.90
2013,07,26,05,49,10.90
2013,07,26,05,50,10.90
2013,07,26,05,51,10.90
2013,07,26,05,52,10.90
2013,07,26,05,53,10.90
2013,07,26,05,54,10.90
2013,07,26,05,55,10.90
2013,07,26,05,56,10.90
2013,07,26,05,57,10.90
2013,07,26,05,58,10.90
2013,07,26,05,59,10.90
2013,07,26,06,00,10.90
2013,07,26,06,01,11.00
2013,07,26,06,02,11.10
2013,07,26,06,03,11.10
2013,07,26,06,04,11.10
2013,07,26,06,05,11.10
2013,07,26,06,06,11.10
2013,07,26,06,07,11.10
2013,07,26,06,08,11.10
2013,07,26,06,09,11.20
2013,07,26,06,10,11.20
2013,07,26,06,11,11.20
2013,07,26,06,12,11.20
2013,07,26,06,13,11.20
2013,07,26,06,14,11.20
2013,07,26,06,15,11.20
2013,07,26,06,16,11.20
2013,07,26,06,17,11.20
2013,07,26,06,18,11.20
2013,07,26,06,19,11.20
2013,07,26,06,20,11.20
2013,07,26,06,21,11.30
2013,07,26,06,22,11.30
2013,07,26,06,23,11.30
2013,07,26,06,24,11.30
2013,07,26,06,25,11.40
2013,07,26,06,26,11.40
2013,07,26,06,27,11.40
2013,07,26,06,28,11.40
2013,07,26,06,29,11.40
2013,07,26,06,30,11.40
2013,07,26,06,31,11.50
2013,07,26,06,32,11.60
2013,07,26,06,33,11.60
2013,07,26,06,34,11.60
2013,07,26,06,35,11.60
2013,07,26,06,36,11.60
2013,07,26,06,37,11.70
2013,07,26,06,38,11.70
2013,07,26,06,39,11.80
2013,07,26,06,40,11.80
2013,07,26,06,41,11.80
2013,07,26,06,42,11.90
2013,07,26,06,43,12.00
2013,07,26,06,44,12.00
2013,07,26,06,45,12.10
2013,07,26,06,46,12.10
2013,07,26,06,47,12.20
2013,07,26,06,48,12.30
2013,07,26,06,49,12.40
2013,07,26,06,50,12.50
2013,07,26,06,51,12.60
2013,07,26,06,52,12.70
2013,07,26,06,53,12.80
2013,07,26,06,54,12.90
2013,07,26,06,55,13.00
2013,07,26,06,56,13.00
2013,07,26,06,57,13.10
2013,07,26,06,58,13.20
2013,07,26,06,59,13.30
2013,07,26,07,00,13.40
2013,07,26,07,01,13.50
2013,07,26,07,02,13.60
2013,07,26,07,03,13.60
2013,07,26,07,04,13.70
2013,07,26,07,05,13.70
2013,07,26,07,06,13.80
2013,07,26,07,07,13.90
2013,07,26,07,08,14.00
2013,07,26,07,09,14.00
2013,07,26,07,10,14.10
2013,07,26,07,11,14.20
2013,07,26,07,12,14.20
2013,07,26,07,13,14.30
2013,07,26,07,14,14.30
2013,07,26,07,15,14.40
2013,07,26,07,16,14.50
2013,07,26,07,17,14.50
2013,07,26,07,18,14.60
2013,07,26,07,19,14.70
2013,07,26,07,20,14.70
2013,07,26,07,21,14.80
2013,07,26,07,22,14.80
2013,07,26,07,23,14.80
2013,07,26,07,24,14.90
2013,07,26,07,25,14.90
2013,07,26,07,26,14.90
2013,07,26,07,27,14.80
2013,07,26,07,28,14.80
2013,07,26,07,29,14.80
2013,07,26,07,30,14.70
2013,07,26,07,31,14.70
2013,07,26,07,32,14.60
2013,07,26,07,33,14.60
2013,07,26,07,34,14.60
2013,07,26,07,35,14.60
2013,07,26,07,36,14.60
2013,07,26,07,37,14.70
2013,07,26,07,38,14.70
2013,07,26,07,39,14.70
2013,07,26,07,40,14.70
2013,07,26,07,41,14.80
2013,07,26,07,42,14.80
2013,07,26,07,43,14.80
2013,07,26,07,44,14.80
2013,07,26,07,45,14.90
2013,07,26,07,46,14.90
2013,07,26,07,47,15.00
2013,07,26,07,48,15.10
2013,07,26,07,49,15.10
2013,07,26,07,50,15.20
2013,07,26,07,51,15.20
2013,07,26,07,52,15.30
2013,07,26,07,53,15.30
2013,07,26,07,54,15.40
2013,07,26,07,55,15.40
2013,07,26,07,56,15.50
2013,07,26,07,57,15.60
2013,07,26,07,58,15.60
2013,07,26,07,59,15.70
2013,07,26,08,00,15.80
2013,07,26,08,01,15.90
2013,07,26,08,02,16.00
2013,07,26,08,03,16.10
2013,07,26,08,04,16.10
2013,07,26,08,05,16.20
2013,07,26,08,06,16.30
2013,07,26,08,07,16.40
2013,07,26,08,08,16.50
2013,07,26,08,09,16.60
2013,07,26,08,10,16.70
2013,07,26,08,11,16.80
2013,07,26,08,12,16.90
2013,07,26,08,13,17.00
2013,07,26,08,14,17.10
2013,07,26,08,15,17.20
2013,07,26,08,16,17.30
2013,07,26,08,17,17.30
2013,07,26,08,18,17.40
2013,07,26,08,19,17.50
2013,07,26,08,20,17.70
2013,07,26,08,21,17.80
2013,07,26,08,22,17.80
2013,07,26,08,23,17.90
2013,07,26,08,24,17.90
2013,07,26,08,25,18.00
2013,07,26,08,26,18.10
2013,07,26,08,27,18.10
2013,07,26,08,28,18.20
2013,07,26,08,29,18.20
2013,07,26,08,30,18.20
2013,07,26,08,31,18.10
2013,07,26,08,32,18.10
2013,07,26,08,33,18.10
2013,07,26,08,34,18.10
2013,07,26,08,35,18.10
2013,07,26,08,36,18.10
2013,07,26,08,37,18.20
2013,07,26,08,38,18.20
2013,07,26,08,39,18.20
2013,07,26,08,40,18.20
2013,07,26,08,41,18.20
2013,07,26,08,42,18.20
2013,07,26,08,43,18.10
2013,07,26,08,44,17.90
2013,07,26,08,45,17.70
2013,07,26,08,46,17.50
2013,07,26,08,47,17.40
2013,07,26,08,48,17.30
2013,07,26,08,49,17.20
2013,07,26,08,50,17.20
2013,07,26,08,51,17.10
2013,07,26,08,52,17.10
2013,07,26,08,53,17.10
2013,07,26,08,54,17.10
2013,07,26,08,55,17.20
2013,07,26,08,56,17.20
2013,07,26,08,57,17.20
2013,07,26,08,58,17.30
2013,07,26,08,59,17.30
2013,07,26,09,00,17.40
2013,07,26,09,01,17.40
2013,07,26,09,02,17.40
2013,07,26,09,03,17.40
2013,07,26,09,04,17.30
2013,07,26,09,05,17.30
2013,07,26,09,06,17.30
2013,07,26,09,07,17.20
2013,07,26,09,08,17.10
2013,07,26,09,09,17.00
2013,07,26,09,10,16.90
2013,07,26,09,11,16.90
2013,07,26,09,12,16.90
2013,07,26,09,13,16.80
2013,07,26,09,14,16.80
2013,07,26,09,15,16.80
2013,07,26,09,16,16.80
2013,07,26,09,17,16.80
2013,07,26,09,18,16.80
2013,07,26,09,19,16.70
2013,07,26,09,20,16.70
2013,07,26,09,21,16.70
2013,07,26,09,22,16.70
2013,07,26,09,23,16.80
2013,07,26,09,24,16.80
2013,07,26,09,25,16.90
2013,07,26,09,26,16.90
2013,07,26,09,27,17.00
2013,07,26,09,28,17.00
2013,07,26,09,29,17.10
2013,07,26,09,30,17.10
2013,07,26,09,31,17.10
2013,07,26,09,32,17.10
2013,07,26,09,33,17.10
2013,07,26,09,34,17.20
2013,07,26,09,35,17.20
2013,07,26,09,36,17.30
2013,07,26,09,37,17.30
2013,07,26,09,38,17.30
2013,07,26,09,39,17.40
2013,07,26,09,40,17.50
2013,07,26,09,41,17.60
2013,07,26,09,42,17.70
2013,07,26,09,43,17.80
2013,07,26,09,44,17.80
2013,07,26,09,45,17.80
2013,07,26,09,46,17.80
2013,07,26,09,47,17.70
2013,07,26,09,48,17.70
2013,07,26,09,49,17.80
2013,07,26,09,50,17.90
2013,07,26,09,51,17.90
2013,07,26,09,52,18.00
2013,07,26,09,53,18.10
2013,07,26,09,54,18.20
2013,07,26,09,55,18.20
2013,07,26,09,56,18.20
2013,07,26,09,57,18.30
2013,07,26,09,58,18.30
2013,07,26,09,59,18.30
2013,07,26,10,00,18.30
2013,07,26,10,01,18.20
2013,07,26,10,02,18.20
2013,07,26,10,03,18.20
2013,07,26,10,04,18.20
2013,07,26,10,05,18.20
2013,07,26,10,06,18.20
2013,07,26,10,07,18.20
2013,07,26,10,08,18.30
2013,07,26,10,09,18.30
2013,07,26,10,10,18.40
2013,07,26,10,11,18.40
2013,07,26,10,12,18.40
2013,07,26,10,13,18.40
2013,07,26,10,14,18.30
2013,07,26,10,15,18.20
2013,07,26,10,16,18.20
2013,07,26,10,17,18.10
2013,07,26,10,18,18.00
2013,07,26,10,19,17.90
2013,07,26,10,20,17.90
2013,07,26,10,21,17.80
2013,07,26,10,22,17.70
2013,07,26,10,23,17.70
2013,07,26,10,24,17.60
2013,07,26,10,25,17.50
2013,07,26,10,26,17.50
2013,07,26,10,27,17.50
2013,07,26,10,28,17.50
2013,07,26,10,29,17.50
2013,07,26,10,30,17.50
2013,07,26,10,31,17.50
2013,07,26,10,32,17.50
2013,07,26,10,33,17.50
2013,07,26,10,34,17.60
2013,07,26,10,35,17.70
2013,07,26,10,36,17.70
2013,07,26,10,37,17.80
2013,07,26,10,38,18.00
2013,07,26,10,39,18.20
2013,07,26,10,40,18.20
2013,07,26,10,41,18.30
2013,07,26,10,42,18.50
2013,07,26,10,43,18.60
2013,07,26,10,44,18.70
2013,07,26,10,45,18.70
2013,07,26,10,46,18.80
2013,07,26,10,47,18.80
2013,07,26,10,48,18.80
2013,07,26,10,49,18.90
2013,07,26,10,50,18.90
2013,07,26,10,51,18.90
2013,07,26,10,52,18.90
2013,07,26,10,53,18.90
2013,07,26,10,54,18.90
2013,07,26,10,55,18.90
2013,07,26,10,56,18.90
2013,07,26,10,57,19.00
2013,07,26,10,58,19.10
2013,07,26,10,59,19.30
2013,07,26,11,00,19.40
2013,07,26,11,01,19.60
2013,07,26,11,02,19.70
2013,07,26,11,03,19.80
2013,07,26,11,04,19.90
2013,07,26,11,05,20.00
2013,07,26,11,06,20.10
2013,07,26,11,07,20.20
2013,07,26,11,08,20.20
2013,07,26,11,09,20.20
2013,07,26,11,10,20.20
2013,07,26,11,11,20.20
2013,07,26,11,12,20.20
2013,07,26,11,13,20.20
2013,07,26,11,14,20.20
2013,07,26,11,15,20.20
2013,07,26,11,16,20.10
2013,07,26,11,17,20.10
2013,07,26,11,18,20.00
2013,07,26,11,19,19.90
2013,07,26,11,20,19.90
2013,07,26,11,21,19.90
2013,07,26,11,22,19.90
2013,07,26,11,23,19.90
2013,07,26,11,24,19.90
2013,07,26,11,25,19.90
2013,07,26,11,26,19.90
2013,07,26,11,27,19.90
2013,07,26,11,28,20.00
2013,07,26,11,29,20.10
2013,07,26,11,30,20.20
2013,07,26,11,31,20.40
2013,07,26,11,32,20.50
2013,07,26,11,33,20.60
2013,07,26,11,34,20.80
2013,07,26,11,35,20.70
2013,07,26,11,36,20.60
2013,07,26,11,37,20.70
2013,07,26,11,38,20.90
2013,07,26,11,39,21.00
2013,07,26,11,40,21.10
2013,07,26,11,41,21.20
2013,07,26,11,42,21.30
2013,07,26,11,43,21.50
2013,07,26,11,44,21.60
2013,07,26,11,45,21.60
2013,07,26,11,46,21.60
2013,07,26,11,47,21.60
2013,07,26,11,48,21.60
2013,07,26,11,49,21.60
2013,07,26,11,50,21.50
2013,07,26,11,51,21.40
2013,07,26,11,52,21.40
2013,07,26,11,53,21.40
2013,07,26,11,54,21.40
2013,07,26,11,55,21.50
2013,07,26,11,56,21.60
2013,07,26,11,57,21.60
2013,07,26,11,58,21.60
2013,07,26,11,59,21.60
2013,07,26,12,00,21.60
2013,07,26,12,01,21.60
2013,07,26,12,02,21.60
2013,07,26,12,03,21.60
2013,07,26,12,04,21.60
2013,07,26,12,05,21.60
2013,07,26,12,06,21.60
2013,07,26,12,07,21.60
2013,07,26,12,08,21.60
2013,07,26,12,09,21.50
2013,07,26,12,10,21.40
2013,07,26,12,11,21.50
2013,07,26,12,12,21.60
2013,07,26,12,13,21.60
2013,07,26,12,14,21.40
2013,07,26,12,15,21.30
2013,07,26,12,16,21.10
2013,07,26,12,17,21.00
2013,07,26,12,18,21.00
2013,07,26,12,19,21.00
2013,07,26,12,20,21.00
2013,07,26,12,21,21.00
2013,07,26,12,22,21.10
2013,07,26,12,23,21.10
2013,07,26,12,24,21.00
2013,07,26,12,25,20.90
2013,07,26,12,26,21.00
2013,07,26,12,27,21.00
2013,07,26,12,28,21.00
2013,07,26,12,29,21.10
2013,07,26,12,30,21.20
2013,07,26,12,31,21.30
2013,07,26,12,32,21.40
2013,07,26,12,33,21.50
2013,07,26,12,34,21.60
2013,07,26,12,35,21.60
2013,07,26,12,36,21.60
2013,07,26,12,37,21.60
2013,07,26,12,38,21.70
2013,07,26,12,39,21.80
2013,07,26,12,40,21.80
2013,07,26,12,41,21.90
2013,07,26,12,42,22.00
2013,07,26,12,43,22.10
2013,07,26,12,44,22.30
2013,07,26,12,45,22.40
2013,07,26,12,46,22.50
2013,07,26,12,47,22.60
2013,07,26,12,48,22.70
2013,07,26,12,49,22.70
2013,07,26,12,50,22.80
2013,07,26,12,51,22.80
2013,07,26,12,52,22.70
2013,07,26,12,53,22.60
2013,07,26,12,54,22.50
2013,07,26,12,55,22.40
2013,07,26,12,56,22.40
2013,07,26,12,57,22.30
2013,07,26,12,58,22.10
2013,07,26,12,59,21.90
2013,07,26,13,00,21.60
2013,07,26,13,01,21.40
2013,07,26,13,02,21.00
2013,07,26,13,03,20.60
2013,07,26,13,04,20.20
2013,07,26,13,05,20.10
2013,07,26,13,06,20.10
2013,07,26,13,07,20.20
2013,07,26,13,08,20.30
2013,07,26,13,09,20.20
2013,07,26,13,10,19.90
2013,07,26,13,11,19.90
2013,07,26,13,12,19.80
2013,07,26,13,13,19.80
2013,07,26,13,14,19.80
2013,07,26,13,15,19.80
2013,07,26,13,16,19.70
2013,07,26,13,17,19.60
2013,07,26,13,18,19.60
2013,07,26,13,19,19.60
2013,07,26,13,20,19.50
2013,07,26,13,21,19.40
2013,07,26,13,22,19.40
2013,07,26,13,23,19.30
2013,07,26,13,24,19.20
2013,07,26,13,25,19.10
2013,07,26,13,26,18.90
2013,07,26,13,27,18.80
2013,07,26,13,28,18.70
2013,07,26,13,29,18.50
2013,07,26,13,30,18.40
2013,07,26,13,31,18.30
2013,07,26,13,32,18.30
2013,07,26,13,33,18.40
2013,07,26,13,34,18.50
2013,07,26,13,35,18.50
2013,07,26,13,36,18.50
2013,07,26,13,37,18.50
2013,07,26,13,38,18.20
2013,07,26,13,39,18.00
2013,07,26,13,40,18.00
2013,07,26,13,41,17.90
2013,07,26,13,42,17.90
2013,07,26,13,43,17.90
2013,07,26,13,44,17.70
2013,07,26,13,45,17.50
2013,07,26,13,46,17.40
2013,07,26,13,47,17.20
2013,07,26,13,48,17.20
2013,07,26,13,49,17.10
2013,07,26,13,50,17.00
2013,07,26,13,51,17.00
2013,07,26,13,52,17.10
2013,07,26,13,53,17.10
2013,07,26,13,54,17.20
2013,07,26,13,55,17.20
2013,07,26,13,56,17.20
2013,07,26,13,57,17.30
2013,07,26,13,58,17.40
2013,07,26,13,59,17.50
2013,07,26,14,00,17.60
2013,07,26,14,01,17.50
2013,07,26,14,02,17.30
2013,07,26,14,03,17.10
2013,07,26,14,04,17.10
2013,07,26,14,05,17.00
2013,07,26,14,06,17.00
2013,07,26,14,07,17.00
2013,07,26,14,08,16.80
2013,07,26,14,09,16.70
2013,07,26,14,10,16.50
2013,07,26,14,11,16.40
2013,07,26,14,12,16.30
2013,07,26,14,13,16.30
2013,07,26,14,14,16.40
2013,07,26,14,15,16.40
2013,07,26,14,16,16.30
2013,07,26,14,17,16.40
2013,07,26,14,18,16.40
2013,07,26,14,19,16.30
2013,07,26,14,20,16.20
2013,07,26,14,21,16.10
2013,07,26,14,22,16.00
2013,07,26,14,23,16.00
2013,07,26,14,24,16.10
2013,07,26,14,25,16.00
2013,07,26,14,26,16.00
2013,07,26,14,27,15.90
2013,07,26,14,28,16.00
2013,07,26,14,29,16.10
2013,07,26,14,30,16.30
2013,07,26,14,31,16.30
2013,07,26,14,32,16.20
2013,07,26,14,33,16.10
2013,07,26,14,34,16.10
2013,07,26,14,35,16.20
2013,07,26,14,36,16.10
2013,07,26,14,37,16.10
2013,07,26,14,38,16.10
2013,07,26,14,39,16.20
2013,07,26,14,40,16.10
2013,07,26,14,41,16.10
2013,07,26,14,42,16.10
2013,07,26,14,43,16.20
2013,07,26,14,44,16.30
2013,07,26,14,45,16.40
2013,07,26,14,46,16.50
2013,07,26,14,47,16.50
2013,07,26,14,48,16.40
2013,07,26,14,49,16.40
2013,07,26,14,50,16.40
2013,07,26,14,51,16.40
2013,07,26,14,52,16.40
2013,07,26,14,53,16.30
2013,07,26,14,54,16.30
2013,07,26,14,55,16.30
2013,07,26,14,56,16.40
2013,07,26,14,57,16.40
2013,07,26,14,58,16.40
2013,07,26,14,59,16.30
2013,07,26,15,00,16.20
2013,07,26,15,01,16.20
2013,07,26,15,02,16.10
2013,07,26,15,03,16.30
2013,07,26,15,04,16.20
2013,07,26,15,05,16.30
2013,07,26,15,06,16.30
2013,07,26,15,07,16.30
2013,07,26,15,08,16.20
2013,07,26,15,09,16.20
2013,07,26,15,10,16.40
2013,07,26,15,11,16.40
2013,07,26,15,12,16.60
2013,07,26,15,13,16.70
2013,07,26,15,14,16.80
2013,07,26,15,15,16.80
2013,07,26,15,16,17.00
2013,07,26,15,17,17.10
2013,07,26,15,18,17.20
2013,07,26,15,19,17.30
2013,07,26,15,20,17.50
2013,07,26,15,21,17.50
2013,07,26,15,22,17.70
2013,07,26,15,23,17.80
2013,07,26,15,24,17.80
2013,07,26,15,25,17.90
2013,07,26,15,26,18.10
2013,07,26,15,27,18.20
2013,07,26,15,28,18.20
2013,07,26,15,29,18.30
2013,07,26,15,30,18.40
2013,07,26,15,31,18.50
2013,07,26,15,32,18.50
2013,07,26,15,33,18.60
2013,07,26,15,34,18.70
2013,07,26,15,35,18.90
2013,07,26,15,36,19.10
2013,07,26,15,37,19.40
2013,07,26,15,38,19.60
2013,07,26,15,39,19.80
2013,07,26,15,40,20.10
2013,07,26,15,41,20.30
2013,07,26,15,42,20.60
2013,07,26,15,43,21.00
2013,07,26,15,44,21.20
2013,07,26,15,45,21.50
2013,07,26,15,46,21.70
2013,07,26,15,47,22.00
2013,07,26,15,48,22.20
2013,07,26,15,49,22.30
2013,07,26,15,50,22.60
2013,07,26,15,51,22.80
2013,07,26,15,52,23.00
2013,07,26,15,53,23.20
2013,07,26,15,54,23.30
2013,07,26,15,55,23.40
2013,07,26,15,56,23.60
2013,07,26,15,57,23.70
2013,07,26,15,58,23.90
2013,07,26,15,59,24.10
2013,07,26,16,00,24.10
2013,07,26,16,01,24.20
2013,07,26,16,02,24.40
2013,07,26,16,03,24.50
2013,07,26,16,04,24.60
2013,07,26,16,05,24.80
2013,07,26,16,06,24.90
2013,07,26,16,07,25.00
2013,07,26,16,08,25.20
2013,07,26,16,09,25.30
2013,07,26,16,10,25.40
2013,07,26,16,11,25.60
2013,07,26,16,12,25.60
2013,07,26,16,13,25.60
2013,07,26,16,14,25.60
2013,07,26,16,15,25.60
2013,07,26,16,16,25.60
2013,07,26,16,17,25.50
2013,07,26,16,18,25.50
2013,07,26,16,19,25.50
2013,07,26,16,20,25.40
2013,07,26,16,21,25.40
2013,07,26,16,22,25.30
2013,07,26,16,23,25.30
2013,07,26,16,24,25.20
2013,07,26,16,25,25.20
2013,07,26,16,26,25.10
2013,07,26,16,27,25.20
2013,07,26,16,28,25.20
2013,07,26,16,29,25.00
2013,07,26,16,30,24.90
2013,07,26,16,31,24.90
2013,07,26,16,32,24.80
2013,07,26,16,33,24.70
2013,07,26,16,34,24.70
2013,07,26,16,35,24.80
2013,07,26,16,36,24.70
2013,07,26,16,37,24.80
2013,07,26,16,38,24.90
2013,07,26,16,39,25.00
2013,07,26,16,40,25.00
2013,07,26,16,41,25.10
2013,07,26,16,42,25.10
2013,07,26,16,43,25.10
2013,07,26,16,44,25.10
2013,07,26,16,45,25.20
2013,07,26,16,46,25.20
2013,07,26,16,47,25.20
2013,07,26,16,48,25.20
2013,07,26,16,49,25.10
2013,07,26,16,50,25.20
2013,07,26,16,51,25.30
2013,07,26,16,52,25.40
2013,07,26,16,53,25.40
2013,07,26,16,54,25.40
2013,07,26,16,55,25.50
2013,07,26,16,56,25.50
2013,07,26,16,57,25.60
2013,07,26,16,58,25.70
2013,07,26,16,59,25.80
2013,07,26,17,00,25.90
2013,07,26,17,01,26.00
2013,07,26,17,02,26.10
2013,07,26,17,03,26.10
2013,07,26,17,04,26.10
2013,07,26,17,05,26.10
2013,07,26,17,06,26.10
2013,07,26,17,07,26.10
2013,07,26,17,08,25.90
2013,07,26,17,09,25.70
2013,07,26,17,10,25.30
2013,07,26,17,11,25.00
2013,07,26,17,12,24.70
2013,07,26,17,13,24.40
2013,07,26,17,14,24.20
2013,07,26,17,15,24.10
2013,07,26,17,16,24.00
2013,07,26,17,17,23.90
2013,07,26,17,18,23.70
2013,07,26,17,19,23.70